Weather History for Leesburg, FL

Change the Weather History Date:

Friday, January 18, 2013

  Actual Average Record
Temperature  
Mean Temperature 54 °F -  
Max Temperature 66 °F 68 °F 83 °F (1963)
Min Temperature 42 °F 45 °F 25 °F (1977)
Degree Days  
Heating Degree Days 11    
Growing Degree Days 4 (Base 50)    
Moisture  
Dew Point 42 °F    
Average Humidity 69    
Maximum Humidity 80    
Minimum Humidity 56    
Precipitation  
Precipitation 0.00 in - - ()
Sea Level Pressure  
Sea Level Pressure 30.27 in    
Wind  
Wind Speed 12 mph (North)    
Max Wind Speed 20 mph    
Max Gust Speed 76 mph    
Visibility 10 miles    
Events      
Averages and records for this station are not official NWS values.
T = Trace of Precipitation, MM = Missing Value Source: NWS Daily Summary

Daily Weather History Graph

Daily Weather History Graph

Search for Another Location

Airport:

Trip Planner

Search our weather history database for the weather conditions in past years. The results will help you decide how hot, cold, wet, or windy it might be!

Date:

Astronomy

Jan. 18, 2013 Rise Set
Actual Time 7:20 AM EST 5:54 PM EST
Civil Twilight 6:55 AM EST 6:20 PM EST
Nautical Twilight 6:26 AM EST 6:49 PM EST
Astronomical Twilight 5:58 AM EST 7:17 PM EST
Moon 11:38 AM EST (1/18) 12:06 AM EST (1/18)
Length of Visible Light 11h 24m
Length of Day
10h 33m
Waxing Crescent, 47% of the Moon is Illuminated
Jan 18
Waxing Crescent
Jan 18
First Quarter
Jan 26
Full
Feb 3
Last Quarter
Feb 10
New

Hourly Weather History & Observations

Time (EST) Temp. Windchill Dew Point Humidity Pressure Visibility Wind Dir Wind Speed Gust Speed Precip Events Conditions
12:09 AM 48.2 °F - 39.2 °F 71% 30.16 in 10.0 mi WNW 13.8 mph 21.9 mph N/A   Mostly Cloudy
12:49 AM 46.4 °F 40.7 °F 35.6 °F 66% 30.18 in 10.0 mi NW 12.7 mph - N/A   Partly Cloudy
12:53 AM 45.0 °F 38.9 °F 35.1 °F 68% 30.18 in 10.0 mi NW 12.7 mph - N/A   Partly Cloudy
1:53 AM 43.0 °F 36.4 °F 34.0 °F 71% 30.20 in 10.0 mi NW 12.7 mph - N/A   Clear
2:53 AM 43.0 °F 37.2 °F 34.0 °F 71% 30.22 in 10.0 mi NNW 10.4 mph 16.1 mph N/A   Partly Cloudy
3:53 AM 42.1 °F 34.9 °F 33.1 °F 70% 30.22 in 10.0 mi North 13.8 mph 20.7 mph N/A   Clear
4:53 AM 42.1 °F 34.9 °F 33.1 °F 70% 30.23 in 10.0 mi North 13.8 mph - N/A   Clear
5:19 AM 42.8 °F 38.6 °F 33.8 °F 70% 30.25 in 10.0 mi North 6.9 mph 16.1 mph N/A   Mostly Cloudy
5:53 AM 43.0 °F 38.2 °F 34.0 °F 71% 30.26 in 10.0 mi North 8.1 mph - N/A   Overcast
6:53 AM 43.0 °F 38.2 °F 35.1 °F 74% 30.27 in 10.0 mi North 8.1 mph - N/A   Overcast
7:53 AM 45.0 °F 39.7 °F 36.0 °F 71% 30.28 in 10.0 mi NNW 10.4 mph 76.0 mph N/A   Overcast
8:15 AM 44.6 °F 39.7 °F 37.4 °F 76% 30.30 in 10.0 mi North 9.2 mph - N/A   Overcast
8:31 AM 46.4 °F 41.1 °F 37.4 °F 71% 30.30 in 10.0 mi NNW 11.5 mph - N/A   Overcast
8:53 AM 46.9 °F - 37.9 °F 71% 30.30 in 10.0 mi North 8.1 mph - N/A   Overcast
9:53 AM 50.0 °F - 39.9 °F 68% 30.32 in 10.0 mi North 10.4 mph - N/A   Overcast
10:53 AM 55.9 °F - 45.0 °F 67% 30.32 in 10.0 mi NNE 10.4 mph - N/A   Overcast
11:53 AM 61.0 °F - 48.9 °F 64% 30.29 in 10.0 mi NNE 12.7 mph - N/A   Overcast
12:53 PM 63.0 °F - 51.1 °F 65% 30.27 in 10.0 mi NE 11.5 mph - N/A   Overcast
1:06 PM 64.4 °F - 51.8 °F 64% 30.26 in 10.0 mi NE 12.7 mph - N/A   Overcast
1:53 PM 66.0 °F - 50.0 °F 56% 30.26 in 10.0 mi NE 18.4 mph 31.1 mph N/A   Overcast
2:53 PM 66.0 °F - 50.0 °F 56% 30.26 in 10.0 mi NE 19.6 mph 26.5 mph N/A   Overcast
3:53 PM 64.0 °F - 51.1 °F 63% 30.27 in 10.0 mi NNE 13.8 mph 23.0 mph N/A   Overcast
4:53 PM 62.1 °F - 50.0 °F 65% 30.29 in 10.0 mi NNE 17.3 mph 23.0 mph N/A   Overcast
5:53 PM 60.1 °F - 48.9 °F 67% 30.31 in 10.0 mi NE 17.3 mph 24.2 mph N/A   Overcast
6:53 PM 57.9 °F - 48.0 °F 70% 30.32 in 10.0 mi NNE 13.8 mph 23.0 mph N/A   Overcast
7:53 PM 57.0 °F - 46.9 °F 69% 30.33 in 10.0 mi NNE 16.1 mph 21.9 mph N/A   Overcast
8:53 PM 55.9 °F - 46.0 °F 69% 30.33 in 10.0 mi North 11.5 mph - N/A   Overcast
9:53 PM 55.0 °F - 46.0 °F 72% 30.32 in 10.0 mi North 9.2 mph - N/A   Overcast
10:53 PM 54.0 °F - 46.0 °F 75% 30.32 in 10.0 mi North 10.4 mph - N/A   Overcast
11:53 PM 52.0 °F - 46.0 °F 80% 30.31 in 10.0 mi North 10.4 mph - N/A   Mostly Cloudy